Regional Weather Roundup
Issued by NWS

Home | Current Version | Previous Version | Graphics & Text | Print | Product List | Glossary On
Versions: 1 2 3 4 5 6 7 8 9 10 11 12 13 14 15 16 17 18 19 20 21 22 23 24 25 26 27 28 29 30 31 32 33 34 35 36 37 38 39 40 41 42 43 44 45 46 47 48 49 50
000
ASUS43 KFSD 282202
RWRSD

WEATHER ROUNDUP FOR SOUTH DAKOTA
NATIONAL WEATHER SERVICE SIOUX FALLS SD
400 PM CST SAT FEB 28 2015

NOTE: "FAIR" INDICATES FEW OR NO CLOUDS BELOW 12,000 FEET WITH NO
SIGNIFICANT WEATHER AND/OR OBSTRUCTIONS TO VISIBILITY.


SDZ001>005-009-010-012>017-282300-
NORTHWEST AND NORTH CENTRAL SOUTH DAKOTA

CITY           SKY/WX    TMP DP  RH WIND       PRES   REMARKS
BUFFALO          N/A     19   6  57 NW18      30.03R WCI   4
FAITH            N/A     23   1  38 NW20G28   30.11R WCI   8
MOBRIDGE       MOSUNNY   26  12  55 NW15      30.10R WCI  14
$$

SDZ012>016-024>037-041>051-057-063-072>074-282300-
SOUTHWEST AND SOUTH CENTRAL SOUTH DAKOTA

CITY           SKY/WX    TMP DP  RH WIND       PRES   REMARKS
RAPID CTY ARPT SUNNY     22  11  62 N18       30.09R WCI   7
PIERRE         SUNNY     31   6  35 NW16      30.12R WCI  20
CUSTER         CLOUDY    20  10  65 SE12      29.92R WCI   8
ELLSWORTH AFB  SUNNY     23  10  57 N18       30.08R WCI   8
PHILIP         SUNNY     31   2  29 NW17G23   30.13R WCI  19
PINE RIDGE     SUNNY     30   5  34 CALM      30.07S
WINNER         FAIR      37   7  28 NW14      30.11S
$$

SDZ004>011-016>023-039-040-282300-
NORTHEAST SOUTH DAKOTA

CITY           SKY/WX    TMP DP  RH WIND       PRES   REMARKS
ABERDEEN       MOSUNNY   29  14  53 SW13      30.14S WCI  19
WATERTOWN      SUNNY     24  13  62 S21       30.14F WCI   9
SISSETON         N/A     26  14  60 SW17      30.16F WCI  13
$$

SDZ017-020-022-023-036>040-048>070-282300-
SOUTHEAST SOUTH DAKOTA

CITY           SKY/WX    TMP DP  RH WIND       PRES   REMARKS
SIOUX FALLS    PTSUNNY   27  13  55 S16       30.22F WCI  15
HURON          SUNNY     32  14  47 S12       30.14F WCI  23
MITCHELL       SUNNY     34  11  38 SW14G22   30.17F WCI  25
YANKTON        MOSUNNY   30  10  43 S14G21    30.24S WCI  20
$$

ABBREVIATIONS USED IN REMARKS
   TC - TEMPERATURE IN CELSIUS
  WCI - WIND CHILL INDEX
   HX - HEAT INDEX
  VSB - VISIBILITY



USA.gov is the U.S. government's official web portal to all federal, state and local government web resources and services.